Location: Fornova de Taro
(44.7000°N, 10.1000°E)
Time: 21:40:11
(UTC+00:00)

ERBS - Pass Details

Date: 26 May 2022
Orbit: 358 x 375 km, 57.0° (Epoch: 03 July)

Event Time Altitude Azimuth Distance (km) Brightness Sun altitude
Exits shadow 00:31:16 36° 55° (NE) 600 3.4 -22.0°
Drops below altitude 10° 00:33:14 10° 50° (NE) 1,373 5.7 -21.9°
Enters shadow 01:28:26 -70° 233° (SW) 12,354 9.6 -17.7°
